Date String (YYYY-MM-DD hh:mm:ss) UTC,Instrument flags,Ambient pressure (hPa),Sample flow (lpm),Bypass flow (lpm),Sample temperature (°C),Ambient temperature (°C),ASC tube jacket temperature (°C),LED temperature (°C),Box temperature (°C),Sample RH (%),Span deviation,Mass concentration (μg/m³),Mass concentration (μg/m³),Mass concentration (μg/m³)
DateTimeUTC,F1_M11,P_M11,Q1_M11,Q2_M11,T1_M11,T2_M11,T3_M11,T4_M11,T5_M11,U1_M11,ZSPAN_M11,X0_M11,X2_M11,X1_M11
2022-09-02 11:00:00,,0826.8,5.00,0.00,30.3,27.1,00.0,39.1,32.0,12.5,0000.0,0009.53,0005.32,0004.80
2022-09-02 11:01:00,,0826.7,5.00,0.00,30.3,27.3,00.0,39.0,31.9,12.5,0000.0,0010.34,0005.32,0004.80
2022-09-02 11:02:00,,0826.8,4.99,0.00,30.2,27.6,00.0,39.0,31.8,12.5,0000.0,0010.59,0005.30,0004.79
2022-09-02 11:03:00,,0826.7,5.00,0.00,30.2,27.9,00.0,39.0,31.8,12.5,0000.0,0010.46,0005.28,0004.77
2022-09-02 11:04:00,,0826.8,5.01,0.00,30.1,28.1,00.0,39.0,31.8,12.5,0000.0,0010.81,0005.26,0004.75
2022-09-02 11:05:00,,0826.7,4.99,0.00,30.1,28.3,00.0,39.0,31.9,12.5,0000.0,0011.11,0005.25,0004.74
2022-09-02 11:06:00,,0826.7,4.99,0.00,30.1,28.5,00.0,39.0,31.9,12.5,0000.0,0011.12,0005.22,0004.72
2022-09-02 11:07:00,,0826.7,4.99,0.00,30.1,28.6,00.0,39.0,31.9,12.5,0000.0,0010.94,0005.20,0004.69
2022-09-02 11:08:00,,0826.8,5.00,0.00,30.1,28.7,00.0,39.0,31.9,12.5,0000.0,0010.91,0005.21,0004.69
2022-09-02 11:09:00,,0826.8,5.00,0.00,30.2,28.8,00.0,39.0,32.0,12.6,0000.0,0010.85,0005.20,0004.68
2022-09-02 11:10:00,,0826.7,5.00,0.00,30.2,28.9,00.0,39.0,32.0,12.5,0000.0,0010.79,0005.20,0004.68
2022-09-02 11:11:00,,0826.7,5.01,0.00,30.2,28.9,00.0,39.0,32.0,12.5,0000.0,0010.79,0005.22,0004.67
2022-09-02 11:12:00,,0826.7,5.00,0.00,30.2,29.0,00.0,39.0,32.0,12.4,0000.0,0010.86,0005.23,0004.67
2022-09-02 11:13:00,,0826.8,4.98,0.00,30.2,29.0,00.0,39.0,32.0,12.3,0000.0,0010.44,0005.24,0004.67
2022-09-02 11:14:00,,0826.8,4.99,0.00,30.2,29.0,00.0,39.0,32.0,12.3,0000.0,0010.47,0005.25,0004.68
2022-09-02 11:15:00,,0826.8,5.01,0.00,30.3,29.1,00.0,39.0,32.1,12.3,0000.0,0010.17,0005.27,0004.70
2022-09-02 11:16:00,,0826.8,5.01,0.00,30.3,29.1,00.0,39.0,32.1,12.3,0000.0,0009.91,0005.30,0004.71
2022-09-02 11:17:00,,0826.8,5.00,0.00,30.3,29.2,00.0,39.0,32.1,12.3,0000.0,0010.30,0005.34,0004.72
2022-09-02 11:18:00,,0826.8,4.98,0.00,30.3,29.2,00.0,39.1,32.1,12.2,0000.0,0010.57,0005.39,0004.72
2022-09-02 11:19:00,,0826.8,5.00,0.00,30.3,29.2,00.0,39.1,32.1,12.2,0000.0,0010.62,0005.41,0004.73
2022-09-02 11:20:00,,0826.8,5.00,0.00,30.4,29.2,00.0,39.1,32.2,12.2,0000.0,0010.60,0005.41,0004.74
2022-09-02 11:21:00,,0826.8,5.01,0.00,30.4,29.3,00.0,39.1,32.2,12.2,0000.0,0011.37,0005.39,0004.73
2022-09-02 11:22:00,,0826.8,5.00,0.00,30.4,29.3,00.0,39.1,32.2,12.2,0000.0,0011.82,0005.33,0004.71
2022-09-02 11:23:00,,0826.8,4.99,0.00,30.4,29.3,00.0,39.1,32.2,12.2,0000.0,0010.88,0005.29,0004.70
2022-09-02 11:24:00,,0826.9,5.00,0.00,30.4,29.3,00.0,39.2,32.2,12.2,0000.0,0010.71,0005.25,0004.68
2022-09-02 11:25:00,,0826.9,5.01,0.00,30.5,29.3,00.0,39.2,32.3,12.2,0000.0,0010.73,0005.25,0004.67
2022-09-02 11:26:00,,0826.8,5.00,0.00,30.5,28.3,00.0,39.2,32.2,12.2,0000.0,0011.35,0005.27,0004.66
2022-09-02 11:27:00,,0826.7,4.98,0.00,30.4,27.2,00.0,39.1,32.1,12.2,0000.0,0011.42,0005.26,0004.64
2022-09-02 11:28:00,,0826.8,5.00,0.00,30.3,27.1,00.0,39.1,32.0,12.2,0000.0,0011.30,0005.22,0004.64
2022-09-02 11:29:00,,0826.8,5.00,0.00,30.2,27.3,00.0,39.0,31.8,12.3,0000.0,0010.85,0005.16,0004.62
2022-09-02 11:30:00,,0826.8,5.00,0.00,30.2,27.7,00.0,39.0,31.8,12.3,0000.0,0010.93,0005.13,0004.61
2022-09-02 11:31:00,,0826.8,4.99,0.00,30.2,27.9,00.0,39.0,31.8,12.4,0000.0,0011.04,0005.15,0004.60
2022-09-02 11:32:00,,0826.8,5.01,0.00,30.1,28.2,00.0,39.0,31.8,12.6,0000.0,0010.46,0005.16,0004.58
2022-09-02 11:33:00,,0826.8,4.99,0.00,30.1,28.4,00.0,39.0,31.9,12.5,0000.0,0009.79,0005.17,0004.58
2022-09-02 11:34:00,,0826.8,5.00,0.00,30.1,28.5,00.0,39.0,31.9,12.4,0000.0,0009.80,0005.17,0004.56
2022-09-02 11:35:00,,0826.8,5.00,0.00,30.1,28.6,00.0,39.0,31.9,12.4,0000.0,0010.53,0005.18,0004.56
2022-09-02 11:36:00,,0826.8,5.00,0.00,30.1,28.7,00.0,39.0,31.9,12.4,0000.0,0010.69,0005.16,0004.54
2022-09-02 11:37:00,,0826.8,5.01,0.00,30.2,28.8,00.0,39.0,31.9,12.4,0000.0,0010.07,0005.11,0004.50
2022-09-02 11:38:00,,0826.8,5.01,0.00,30.2,28.9,00.0,39.0,32.0,12.4,0000.0,0010.33,0005.09,0004.47
2022-09-02 11:39:00,,0826.8,5.00,0.00,30.2,28.9,00.0,39.0,32.0,12.4,0000.0,0010.44,0005.05,0004.44
2022-09-02 11:40:00,,0826.9,5.00,0.00,30.2,29.0,00.0,39.0,32.0,12.4,0000.0,0010.88,0005.06,0004.41
2022-09-02 11:41:00,,0826.9,5.00,0.00,30.2,29.0,00.0,39.0,32.0,12.4,0000.0,0010.94,0005.01,0004.38
2022-09-02 11:42:00,,0826.8,4.99,0.00,30.2,29.0,00.0,39.0,32.0,12.4,0000.0,0011.33,0004.98,0004.36
2022-09-02 11:43:00,,0826.8,5.00,0.00,30.2,29.1,00.0,39.0,32.1,12.5,0000.0,0011.49,0004.95,0004.34
2022-09-02 11:44:00,,0826.9,5.00,0.00,30.3,29.1,00.0,39.0,32.1,12.5,0000.0,0011.44,0004.92,0004.31
2022-09-02 11:45:00,,0826.9,5.00,0.00,30.3,29.1,00.0,39.1,32.1,12.5,0000.0,0011.42,0004.89,0004.29
2022-09-02 11:46:00,,0827.1,5.00,0.00,30.3,29.2,00.0,39.1,32.1,12.5,0000.0,0011.08,0004.87,0004.28
2022-09-02 11:47:00,,0827.1,5.00,0.00,30.3,29.2,00.0,39.1,32.1,12.5,0000.0,0010.53,0004.84,0004.25
2022-09-02 11:48:00,,0827.1,4.99,0.00,30.4,29.2,00.0,39.1,32.2,12.5,0000.0,0010.61,0004.81,0004.23
2022-09-02 11:49:00,,0826.9,5.00,0.00,30.4,29.2,00.0,39.1,32.2,12.5,0000.0,0010.32,0004.78,0004.22
2022-09-02 11:50:00,,0826.9,5.01,0.00,30.4,29.3,00.0,39.1,32.2,12.5,0000.0,0009.98,0004.76,0004.21
2022-09-02 11:51:00,,0826.9,5.01,0.00,30.4,29.3,00.0,39.1,32.2,12.5,0000.0,0009.69,0004.73,0004.18
2022-09-02 11:52:00,,0826.9,4.98,0.00,30.4,29.3,00.0,39.2,32.3,12.5,0000.0,0010.38,0004.73,0004.17
2022-09-02 11:53:00,,0826.9,5.01,0.00,30.5,29.3,00.0,39.2,32.3,12.5,0000.0,0010.23,0004.70,0004.15
2022-09-02 11:54:00,,0826.9,5.00,0.00,30.5,29.3,00.0,39.2,32.3,12.5,0000.0,0009.74,0004.66,0004.12
2022-09-02 11:55:00,,0826.9,5.00,0.00,30.5,29.3,00.0,39.2,32.3,12.5,0000.0,0009.80,0004.67,0004.11
2022-09-02 11:56:00,,0826.9,4.98,0.00,30.5,28.2,00.0,39.2,32.2,12.4,0000.0,0009.70,0004.65,0004.09
2022-09-02 11:57:00,,0827.0,5.00,0.00,30.4,27.3,00.0,39.2,32.1,12.4,0000.0,0009.83,0004.62,0004.07
2022-09-02 11:58:00,,0827.1,5.01,0.00,30.4,27.3,00.0,39.1,32.1,12.4,0000.0,0009.99,0004.60,0004.07
2022-09-02 11:59:00,,0827.0,5.00,0.00,30.3,27.5,00.0,39.1,31.9,12.5,0000.0,0009.89,0004.59,0004.07
